Regional Weather Roundup
Issued by NWS

Home | Current Version | Previous Version | Text Only | Print | Product List | Glossary On
Versions: 1 2 3 4 5 6 7 8 9 10 11 12 13 14 15 16 17 18 19 20 21 22 23 24 25 26 27
000
ASUS42 KTBW 061717
RWRFL
FLORIDA REGIONAL WEATHER ROUNDUP
NATIONAL WEATHER SERVICE TAMPA BAY RUSKIN FL
1200 PM EST TUE DEC 06 2016

NOTE: "FAIR" INDICATES FEW OR NO CLOUDS BELOW 12,000 FEET WITH NO
SIGNIFICANT WEATHER AND/OR OBSTRUCTIONS TO VISIBILITY.

FLZ001>010-012>015-112-114-115-061800-
PANHANDLE FLORIDA

CITY           SKY/WX    TMP DP  RH WIND       PRES   REMARKS
PENSACOLA      CLOUDY    64  53  67 W15       29.89S
PENSACOLA NAS  CLOUDY    63  53  70 W12G20    29.89F
MILTON NAS     PTSUNNY   62  54  74 W14       29.89R
CRESTVIEW        N/A     65  55  70 W12       29.88F
DUKE FIELD     PTSUNNY   66  55  67 W10       29.86F
VALPARAISO     MOSUNNY   68  55  62 W9G18     29.87S
MARY ESTHER    MOSUNNY   66  49  53 W15       29.87S
TRI COUNTY     FAIR      72  57  59 W7        29.84R
PANAMA CITY    FAIR      70  57  63 W18G28    29.84S
TYNDALL AFB    SUNNY     71  60  67 W23       29.86F
APALACHICOLA   MOSUNNY   74  61  63 W20G28    29.86S

STATION/POSITION SKY/WX   TEMP    WIND        PRES    WAVE   SWELL
                          AIR SEA DIR/SP/G            HT/PER HT/PER
                          (F)     (DEG/KT/KT) (MB)    (FT/S) (FT/S)
30.1N   87.6W              63 69  270/ 17/ 23 1012.4R   8/ 7
29.2N   88.2W              64 75  270/ 19/ 23 1013.5
28.8N   86.0W              77 75              1012.3F   7/ 7
PANAMA CITY BEAC           67 68  280/ 27/ 32 1011.6S
TOWER C                    71     290/ 22/ 24 1011.9F
28.5N   84.5W              76 75  270/ 17/ 21 1011.6F   6/ 6

$$
FLZ011-016>038-118-127-128-134-139-239-061800-
NORTH FLORIDA

CITY           SKY/WX    TMP DP  RH WIND       PRES   REMARKS
MARIANNA       SUNNY     74  56  53 W16       29.81S
TALLAHASSEE    MOSUNNY   77  59  53 W21       29.81F
PERRY          PTSUNNY   78  70  78 SW17G28   29.84S
CROSS CITY     CLOUDY    77  72  83 W16G23    29.84F
LAKE CITY      CLOUDY    75  73  94 W12G20    29.81F
GAINESVILLE    LGT RAIN  77  72  84 W15G25    29.84F
WILLISTON      PTSUNNY   79  73  83 SW15      29.86S
PALATKA        CLOUDY    75  75 100 W16G25    29.85S
MAYPORT NAS    CLOUDY    76  71  85 SW10      29.80F
JACKSONVILLE   LGT RAIN  74  71  91 W17G23    29.79F
JAX NAS        PTSUNNY   77  73  87 SW16      29.81F
FERNANDINA BEA CLOUDY    79  73  83 SW8       29.78F
ST AUGUSTINE   CLOUDY    75  71  87 SW10      29.83S

STATION/POSITION SKY/WX   TEMP    WIND        PRES    WAVE   SWELL
                          AIR SEA DIR/SP/G            HT/PER HT/PER
                          (F)     (DEG/KT/KT) (MB)    (FT/S) (FT/S)
SHELL POINT      NOT AVBL
KEATON BEACH               70     250/ 17/ 19 1010.4F
CEDAR KEY                  72     260/ 10/ 13 1011.4F
FERNANDINA                 73 68  240/  9/ 13 1008.5F
30.7N   81.3W                 66                N/A     4/ 6
MAYPORT                    74 67  240/ 10/ 13 1009.1F
31.4N   80.9W              69 65  180/ 17/ 21 1007.1F   5/ 7   2/ 9
ST AUGUSTINE               74 68  240/  9/ 15 1010.6F

$$
FLZ040-043>046-052-053-057-058-063-144-061800-
INTERIOR CENTRAL FLORIDA

CITY           SKY/WX    TMP DP  RH WIND       PRES   REMARKS
OCALA          CLOUDY    73  70  88 SW14      29.87F
THE VILLAGES     N/A     75  75 100 SE17G25   29.77F
LEESBURG       HVY RAIN  78  73  84 W14G23    29.87F VSB 3/4
SANFORD        LGT RAIN  79  75  87 SW10      29.85F
ORLANDO EXEC   LGT RAIN  79  75  87 SW12      29.86F
ORLANDO INTL   LGT RAIN  81  74  79 SW16G23   29.87F
KISSIMMEE      LGT RAIN  79  76  90 W13       29.89F
WINTER HAVEN   CLOUDY    81  74  79 SW15G25   29.89F
LAKELAND       PTSUNNY   82  75  78 SW18G28   29.90F
BARTOW         PTSUNNY   79  79 100 SW15      29.90F
OKEECHOBEE     CLOUDY    82  72  69 SW16      29.94F

$$
FLZ041-047-054-059-064-141-147-061800-
EAST CENTRAL FLORIDA

CITY           SKY/WX    TMP DP  RH WIND       PRES   REMARKS
ORMOND BEACH   PTSUNNY   81  73  78 W16       29.83F
DAYTONA BEACH  CLOUDY    83  73  72 SW17G35   29.82F THUNDER
DELAND         CLOUDY    82  73  74 S14       29.83F
NEW SMYRNA BEA PTSUNNY   82  73  74 SW23G35   29.84F
JFK SPACE CTR  PTSUNNY   83  72  69 SW16G29   29.85F
TITUSVILLE     PTSUNNY   82  73  74 SW23G29   29.89F
CAPE CANAVERAL PTSUNNY   84  73  70 SW20      29.86F
PATRICK AFB    SUNNY     84  73  69 SW16G24   29.88F
MELBOURNE      PTSUNNY   83  73  72 SW17G24   29.89F
VERO BEACH     PTSUNNY   83  73  72 SW20G26   29.93F
FT PIERCE      CLOUDY    83  73  72 SW20G25   29.93F
STUART         PTSUNNY   86  73  66 SW16G29   29.96F

STATION/POSITION SKY/WX   TEMP    WIND        PRES    WAVE   SWELL
                          AIR SEA DIR/SP/G            HT/PER HT/PER
                          (F)     (DEG/KT/KT) (MB)    (FT/S) (FT/S)
TRIDENT PIER               81 73  200/ 12/ 18 1011.6F
28.4N   80.5W                 72                N/A     4/ 6

$$
FLZ050-056-061-142-242-148-248-149-249-151-251-155-255-
160-260-061800-
WEST CENTRAL FLORIDA

CITY           SKY/WX    TMP DP  RH WIND       PRES   REMARKS
INVERNESS      LGT RAIN  73  73 100 SW5G20    29.88F
BROOKSVILLE    CLOUDY   N/A N/A N/A SW17G35   29.90S
ST PETE CLEARW CLOUDY    80  75  84 SW18G29   29.89F
TAMPA INTL     CLOUDY    79  75  87 S16       29.89F
TAMPA EXEC     LGT RAIN  81  75  83 SW14G26   29.90F
PLANT CITY     CLOUDY    84  77  79 SW21G29   29.91F
MACDILL AFB    CLOUDY    77  77 100 W13       29.90F
PETER O KNIGHT CLOUDY    79  77  94 SW15G21   29.90F
ST PETERSBURG  LGT RAIN  76  75  97 SW18G25   29.88F FOG
SARASOTA       CLOUDY    78  75  90 S20       29.89F FOG
VENICE         NOT AVBL

STATION/POSITION SKY/WX   TEMP    WIND        PRES    WAVE   SWELL
                          AIR SEA DIR/SP/G            HT/PER HT/PER
                          (F)     (DEG/KT/KT) (MB)    (FT/S) (FT/S)
CLEARWATER BEACH           73 71  240/ 17/ 33 1013.0F
MIDDLE TAMPA BAY           76     220/ 20/ 24 1012.8F
VENICE                     75 72  170/ 14/ 15 1013.8F

$$
FLZ066-069-070-075>078-162-262-165-265-061800-
SOUTHWEST FLORIDA AND KEYS

CITY           SKY/WX    TMP DP  RH WIND       PRES   REMARKS
PUNTA GORDA    PTSUNNY   84  75  74 SW22G33   29.94F
FT MYERS       PTSUNNY   84  76  76 SW15G22   29.94F
SOUTHWEST INTL MOSUNNY   84  74  71 SW21G32   29.94F
NAPLES         MOSUNNY   83  75  77 S15G25    29.96F
MARCO ISLAND   CLOUDY    82  75  78 S17G24    29.97F
MARATHON       MOSUNNY   87  77  72 S7        29.99F HX  99
KEY WEST NAS   MOSUNNY   83  76  79 S14       29.99F
KEY WEST INTL  MOSUNNY   82  77  84 S12       29.99F

STATION/POSITION SKY/WX   TEMP    WIND        PRES    WAVE   SWELL
                          AIR SEA DIR/SP/G            HT/PER HT/PER
                          (F)     (DEG/KT/KT) (MB)    (FT/S) (FT/S)
NAPLES                        75              1014.7F
26.0N   85.6W              78 78  230/ 14/ 16 1014.4R   6/ 6   3/ 7
DRY TORTUGAS               80     190/ 10/ 11 1015.2F
SAND KEY                   79     200/ 10/ 12 1016.2F
LONG KEY                   79 78  220/  9/ 10 1015.7F
MOLASSES REEF                     210/ 15       N/A

$$
FLZ067-068-071>074-168-172>174-061800-
SOUTHEAST FLORIDA

CITY           SKY/WX    TMP DP  RH WIND       PRES   REMARKS
W PALM BEACH   PTSUNNY   85  72  65 S16       29.96F
BOCA RATON     PTSUNNY   86  72  62 SW16G26   29.96F
FT LAUDER-EXEC MOSUNNY   86  70  58 SW16G23   29.96F
FT LAUDERDALE  PTSUNNY   85  72  65 SW13      29.96F
POMPANO BEACH  MOSUNNY   85  72  65 SW13G24   29.96F
PEMBROKE PINES PTSUNNY   87  70  56 SW12      29.98F
OPA LOCKA      PTSUNNY   86  70  58 SW13      29.98F
MIAMI          MOSUNNY   85  70  60 S14G23    29.98F
WEST KENDALL   MOSUNNY   85  71  63 S13       29.98F
HOMESTEAD      MOSUNNY   85  73  67 SW15      29.98F

STATION/POSITION SKY/WX   TEMP    WIND        PRES    WAVE   SWELL
                          AIR SEA DIR/SP/G            HT/PER HT/PER
                          (F)     (DEG/KT/KT) (MB)    (FT/S) (FT/S)
PORT EVERGLADES            81     160/ 11/ 16 1014.8F
VIRGINIA KEY               80 83  190/ 15/ 18 1015.9F
LAKE WORTH                 79 78  180/ 19/ 23 1014.3F
FOWEY ROCKS                80 78  200/ 17/ 20 1016.0F

$$





USA.gov is the U.S. government's official web portal to all federal, state and local government web resources and services.